Date,TemperatureHighF,TemperatureAvgF,TemperatureLowF,DewpointHighF,DewpointAvgF,DewpointLowF,HumidityHigh,HumidityAvg,HumidityLow,PressureMaxIn,PressureMinIn,WindSpeedMaxMPH,WindSpeedAvgMPH,GustSpeedMaxMPH,PrecipitationSumIn
2013-3-1,48.6,38.1,28.2,34.1,29.4,26.3,99,73,44,29.66,29.48,17,6,17,0.00
2013-3-2,43.0,34.8,28.6,27.0,23.5,20.7,74,64,46,29.66,29.57,18,7,18,0.00
2013-3-3,39.2,31.7,27.0,21.3,19.1,16.3,73,60,44,29.65,29.56,21,7,21,0.00
2013-3-4,46.0,34.5,27.1,22.3,19.1,16.6,68,54,33,29.80,29.65,22,8,22,0.00
2013-3-5,57.2,39.4,30.0,28.9,24.4,21.1,81,57,26,29.88,29.79,17,4,17,0.00
2013-3-6,43.2,38.2,32.5,38.2,33.2,27.6,99,83,65,29.81,29.65,33,10,33,0.00
2013-3-7,47.1,38.5,32.2,36.6,30.1,25.6,99,73,49,29.95,29.78,21,9,21,0.01
2013-3-8,43.3,34.9,29.3,35.3,31.0,26.3,99,87,63,30.07,29.88,20,6,20,0.07
2013-3-9,65.7,43.5,30.4,30.7,20.2,1.9,80,47,10,30.16,30.04,16,4,16,0.00
2013-3-10,59.7,40.8,24.4,38.5,31.4,23.3,99,73,34,30.22,30.11,10,3,10,0.00
2013-3-11,60.4,45.9,33.3,51.0,41.9,33.0,99,88,51,30.16,29.91,11,4,11,0.00
2013-3-12,57.4,52.5,43.7,57.1,51.0,39.8,99,95,80,29.91,29.52,21,7,21,0.59
2013-3-13,55.0,42.7,34.7,40.2,30.0,21.4,90,63,30,29.77,29.67,18,5,18,0.00
2013-3-14,45.0,35.5,28.9,25.4,12.3,3.0,68,40,21,29.84,29.73,25,8,25,0.00
2013-3-15,48.7,38.7,26.8,32.1,20.7,9.6,63,48,40,29.86,29.57,16,5,16,0.00
2013-3-16,44.1,36.6,32.4,31.6,27.2,23.1,81,69,59,29.71,29.62,10,3,10,0.00
2013-3-17,40.6,32.7,25.0,32.3,22.6,16.1,99,70,39,30.14,29.77,14,4,14,0.01
2013-3-18,37.6,29.7,20.3,32.7,24.1,13.3,99,81,49,30.23,29.84,11,4,11,0.01
2013-3-19,53.6,39.1,32.9,42.8,32.5,14.9,99,81,38,29.79,29.55,17,6,17,0.48
2013-3-20,49.6,38.8,30.2,20.1,17.3,11.8,64,44,22,29.75,29.63,14,7,14,0.00
2013-3-21,43.0,34.8,27.1,24.1,15.1,8.2,81,46,26,29.64,29.50,17,6,17,0.00
2013-3-22,45.9,34.0,25.5,23.1,19.0,12.5,79,56,32,29.76,29.60,20,6,20,0.00
2013-3-23,51.1,38.8,28.8,22.3,19.4,15.1,69,48,24,29.81,29.70,24,7,24,0.00
2013-3-24,52.9,39.6,24.6,27.0,20.2,14.3,84,49,22,29.81,29.55,15,4,15,0.00
2013-3-25,39.6,36.1,32.9,38.8,32.5,25.8,99,88,63,29.55,29.33,17,4,17,0.09
2013-3-26,54.9,42.6,34.5,37.4,32.0,20.4,99,71,29,29.74,29.47,16,4,16,0.00
2013-3-27,55.2,42.9,33.1,35.1,28.4,17.1,84,60,25,29.86,29.74,21,6,21,0.00
2013-3-28,52.2,42.8,30.2,33.9,29.6,25.9,92,62,37,29.98,29.83,17,6,17,0.00
2013-3-29,58.8,44.7,29.3,32.8,28.7,22.2,95,57,25,30.02,29.93,17,4,17,0.00
2013-3-30,63.0,46.1,28.9,35.3,23.5,4.5,99,52,10,30.03,29.91,21,3,21,0.00
2013-3-31,57.9,44.0,28.0,46.8,34.7,25.4,99,74,32,29.97,29.55,19,4,19,0.15